ASA1315 KLAX-KPDX

Flight info

Callsign ASA1315
Flight time N/A
Altitude 36000
Route LADYJ4 CSTRO SHIMR LMT MOXEE TMBRS4
Aircraft MD83/M-SDFGIRWY/S

Departure

Time 2026-04-26 02:45
Airport Los Angeles International Airport (KLAX)

Arrival

Time N/A
Airport Portland International Airport (KPDX)
Time Latitude Longitude Altitude Speed Heading
2026-04-26 02:19 33.94072 -118.40262 96 ft 0 kts 83°
2026-04-26 02:33 33.94070 -118.40283 96 ft 3 kts 83°
2026-04-26 02:33 33.94069 -118.40306 96 ft 4 kts 113°
2026-04-26 02:33 33.94083 -118.40321 96 ft 4 kts 167°
2026-04-26 02:33 33.94108 -118.40325 96 ft 4 kts 173°
2026-04-26 02:34 33.94121 -118.40327 96 ft 0 kts 173°
2026-04-26 02:36 33.94098 -118.40324 96 ft 10 kts 173°
2026-04-26 02:36 33.94041 -118.40315 98 ft 6 kts 171°
2026-04-26 02:37 33.94038 -118.40315 98 ft 0 kts 170°
2026-04-26 02:38 33.94036 -118.40314 96 ft 3 kts 170°
2026-04-26 02:38 33.93982 -118.40304 98 ft 11 kts 171°
2026-04-26 02:39 33.93932 -118.40337 101 ft 7 kts 245°
2026-04-26 02:39 33.93919 -118.40416 99 ft 12 kts 262°
2026-04-26 02:39 33.93909 -118.40530 100 ft 16 kts 263°
2026-04-26 02:39 33.93892 -118.40676 100 ft 19 kts 262°
2026-04-26 02:40 33.93874 -118.40845 98 ft 21 kts 263°
2026-04-26 02:40 33.93855 -118.41030 98 ft 23 kts 263°
2026-04-26 02:40 33.93841 -118.41206 98 ft 17 kts 277°
2026-04-26 02:40 33.93921 -118.41271 98 ft 15 kts 353°
2026-04-26 02:41 33.94051 -118.41291 96 ft 21 kts 353°
2026-04-26 02:41 33.94217 -118.41314 96 ft 27 kts 353°
2026-04-26 02:41 33.94409 -118.41342 96 ft 28 kts 353°
2026-04-26 02:41 33.94599 -118.41369 97 ft 27 kts 356°
2026-04-26 02:42 33.94759 -118.41381 101 ft 17 kts 23°
2026-04-26 02:42 33.94798 -118.41246 101 ft 25 kts 85°
2026-04-26 02:42 33.94822 -118.41002 101 ft 30 kts 84°
2026-04-26 02:42 33.94846 -118.40751 101 ft 30 kts 82°
2026-04-26 02:43 33.94905 -118.40255 101 ft 30 kts 79°
2026-04-26 02:43 33.94919 -118.40054 100 ft 18 kts 84°
2026-04-26 02:43 33.94958 -118.39920 102 ft 15 kts 35°
2026-04-26 02:44 33.95033 -118.39926 109 ft 9 kts 315°
2026-04-26 02:44 33.95037 -118.40002 110 ft 14 kts 262°
2026-04-26 02:44 33.95008 -118.40283 110 ft 66 kts 263°
2026-04-26 02:44 33.94922 -118.41117 109 ft 132 kts 262°
2026-04-26 02:45 33.94819 -118.42411 322 ft 169 kts 263°
2026-04-26 02:45 33.94699 -118.43820 1258 ft 170 kts 264°
2026-04-26 02:45 33.94555 -118.45269 2069 ft 178 kts 262°
2026-04-26 02:45 33.94378 -118.46836 2682 ft 201 kts 264°
2026-04-26 02:46 33.94265 -118.48603 3238 ft 222 kts 267°
2026-04-26 02:46 33.94190 -118.50571 3767 ft 248 kts 267°
2026-04-26 02:46 33.94080 -118.52690 4658 ft 256 kts 265°
2026-04-26 02:46 33.93920 -118.54963 4926 ft 291 kts 265°
2026-04-26 02:47 33.93722 -118.57533 5103 ft 320 kts 265°
2026-04-26 02:47 33.93547 -118.60200 6047 ft 317 kts 271°
2026-04-26 02:47 33.94039 -118.62704 7302 ft 302 kts 297°
2026-04-26 02:47 33.95332 -118.64540 8471 ft 279 kts 318°
2026-04-26 02:48 33.96871 -118.65913 9315 ft 278 kts 321°
2026-04-26 02:48 33.98487 -118.67230 10051 ft 282 kts 326°
2026-04-26 02:48 34.00388 -118.67974 10681 ft 299 kts 352°
2026-04-26 02:48 34.02543 -118.67898 11080 ft 321 kts
2026-04-26 02:49 34.04845 -118.67655 11385 ft 343 kts
2026-04-26 02:49 34.07303 -118.67398 11732 ft 365 kts
2026-04-26 02:49 34.09843 -118.66934 12594 ft 373 kts
2026-04-26 02:49 34.12403 -118.66253 13438 ft 380 kts
2026-04-26 02:50 34.14996 -118.65520 14239 ft 386 kts
2026-04-26 02:50 34.16744 -118.65041 14621 ft 390 kts
2026-04-26 02:50 34.20268 -118.64119 15687 ft 394 kts
2026-04-26 02:50 34.22971 -118.63455 16509 ft 398 kts
2026-04-26 02:51 34.25720 -118.63287 17251 ft 394 kts 348°
2026-04-26 02:51 34.28418 -118.63826 18041 ft 394 kts 343°
2026-04-26 02:51 34.30210 -118.64277 18462 ft 398 kts 342°
2026-04-26 02:51 34.32928 -118.64978 19121 ft 401 kts 342°
2026-04-26 02:52 34.35669 -118.65686 19757 ft 406 kts 342°
2026-04-26 02:52 34.38450 -118.66395 20287 ft 410 kts 343°
2026-04-26 02:52 34.41257 -118.67089 20886 ft 413 kts 343°
2026-04-26 02:52 34.44107 -118.67749 21492 ft 418 kts 345°
2026-04-26 02:53 34.46992 -118.68339 22087 ft 423 kts 346°
2026-04-26 02:53 34.49912 -118.68894 22696 ft 427 kts 346°
2026-04-26 02:53 34.52859 -118.69442 23255 ft 431 kts 346°
2026-04-26 02:53 34.55831 -118.69996 23752 ft 434 kts 346°
2026-04-26 02:54 34.58836 -118.70564 24184 ft 438 kts 346°
2026-04-26 02:54 34.61863 -118.71145 24625 ft 442 kts 346°
2026-04-26 02:54 34.64911 -118.71738 25040 ft 446 kts 346°
2026-04-26 02:54 34.67991 -118.72344 25465 ft 449 kts 345°
2026-04-26 02:55 34.71081 -118.72991 25861 ft 451 kts 341°
2026-04-26 02:55 34.73961 -118.74303 26271 ft 442 kts 327°
2026-04-26 02:55 34.76660 -118.76106 26633 ft 444 kts 324°
2026-04-26 02:55 34.79323 -118.78016 27043 ft 446 kts 323°
2026-04-26 02:56 34.82005 -118.79953 27412 ft 449 kts 323°
2026-04-26 02:56 34.84710 -118.81896 27794 ft 452 kts 324°
2026-04-26 02:56 34.87434 -118.83826 28158 ft 455 kts 324°
2026-04-26 02:56 34.90198 -118.85753 28500 ft 459 kts 324°
2026-04-26 02:57 34.92992 -118.87674 28843 ft 461 kts 325°
2026-04-26 02:57 34.95797 -118.89591 29163 ft 464 kts 325°
2026-04-26 02:57 34.98625 -118.91521 29513 ft 467 kts 325°
2026-04-26 02:57 35.01426 -118.93438 29819 ft 469 kts 325°
2026-04-26 02:58 35.04282 -118.95400 30092 ft 472 kts 325°
2026-04-26 02:58 35.07126 -118.97357 30697 ft 465 kts 325°
2026-04-26 02:58 35.09940 -118.99296 31092 ft 464 kts 325°
2026-04-26 02:58 35.12742 -119.01239 31439 ft 463 kts 325°
2026-04-26 02:59 35.15541 -119.03185 31783 ft 463 kts 325°
2026-04-26 02:59 35.18339 -119.05130 32123 ft 463 kts 325°
2026-04-26 02:59 35.21135 -119.07073 32469 ft 462 kts 325°
2026-04-26 02:59 35.23934 -119.09016 32788 ft 462 kts 325°
2026-04-26 03:00 35.26725 -119.10953 33127 ft 461 kts 325°
2026-04-26 03:00 35.29510 -119.12886 33438 ft 461 kts 325°
2026-04-26 03:00 35.32297 -119.14822 33769 ft 460 kts 325°
2026-04-26 03:00 35.35078 -119.16756 34034 ft 460 kts 325°
2026-04-26 03:01 35.37854 -119.18688 34302 ft 458 kts 325°
2026-04-26 03:01 35.40627 -119.20619 34552 ft 458 kts 325°
2026-04-26 03:01 35.43390 -119.22545 34811 ft 457 kts 325°
2026-04-26 03:01 35.46171 -119.24441 35055 ft 457 kts 327°
2026-04-26 03:02 35.48981 -119.26273 35276 ft 457 kts 327°
2026-04-26 03:02 35.51795 -119.28086 35531 ft 456 kts 327°
2026-04-26 03:02 35.54608 -119.29890 35739 ft 457 kts 327°
2026-04-26 03:02 35.57429 -119.31700 35833 ft 459 kts 327°
2026-04-26 03:03 35.63062 -119.35304 35906 ft 458 kts 327°
2026-04-26 03:03 35.68704 -119.38898 35917 ft 455 kts 328°
2026-04-26 03:04 35.74325 -119.42459 35918 ft 454 kts 328°
2026-04-26 03:04 35.79950 -119.46009 35916 ft 454 kts 328°
2026-04-26 03:05 35.85582 -119.49551 35909 ft 455 kts 328°
2026-04-26 03:05 35.91231 -119.53090 35903 ft 455 kts 328°
2026-04-26 03:06 35.96845 -119.56594 35897 ft 455 kts 328°
2026-04-26 03:06 36.02504 -119.60112 35901 ft 455 kts 329°
2026-04-26 03:07 36.08174 -119.63623 35902 ft 455 kts 329°
2026-04-26 03:07 36.13841 -119.67118 35906 ft 455 kts 329°
2026-04-26 03:08 36.19518 -119.70605 35911 ft 455 kts 329°
2026-04-26 03:08 36.25199 -119.74081 35915 ft 455 kts 329°
2026-04-26 03:09 36.30875 -119.77540 35914 ft 455 kts 330°
2026-04-26 03:09 36.36570 -119.80995 35896 ft 455 kts 330°
2026-04-26 03:10 36.42261 -119.84435 35897 ft 455 kts 330°
2026-04-26 03:10 36.47916 -119.87839 35896 ft 455 kts 330°
2026-04-26 03:11 36.53614 -119.91255 35896 ft 455 kts 330°
2026-04-26 03:11 36.59567 -119.93899 35933 ft 463 kts 353°
2026-04-26 03:12 36.62796 -119.93745 35957 ft 468 kts
2026-04-26 03:12 36.66031 -119.93240 35950 ft 469 kts
2026-04-26 03:12 36.72528 -119.93170 35940 ft 465 kts 353°
2026-04-26 03:13 36.78969 -119.93830 35928 ft 464 kts 352°
2026-04-26 03:13 36.85399 -119.94617 35920 ft 464 kts 352°
2026-04-26 03:14 36.91833 -119.95355 35922 ft 464 kts 352°
2026-04-26 03:14 36.98267 -119.96041 35927 ft 464 kts 353°
2026-04-26 03:15 37.04711 -119.96722 35926 ft 464 kts 352°
2026-04-26 03:15 37.11141 -119.97408 35923 ft 464 kts 353°
2026-04-26 03:16 37.17572 -119.98101 35917 ft 464 kts 353°
2026-04-26 03:16 37.23956 -119.98789 35909 ft 463 kts 353°
2026-04-26 03:17 37.30377 -119.99482 35910 ft 463 kts 353°
2026-04-26 03:17 37.36791 -120.00176 35907 ft 462 kts 353°
2026-04-26 03:18 37.43204 -120.00873 35902 ft 462 kts 353°
2026-04-26 03:18 37.49608 -120.01568 35905 ft 462 kts 353°
2026-04-26 03:19 37.56011 -120.02263 35903 ft 462 kts 353°
2026-04-26 03:19 37.62412 -120.02961 35906 ft 462 kts 353°
2026-04-26 03:20 37.68807 -120.03657 35907 ft 461 kts 353°
2026-04-26 03:20 37.75207 -120.04353 35900 ft 461 kts 353°
2026-04-26 03:21 37.81592 -120.05052 35901 ft 461 kts 353°
2026-04-26 03:21 37.87940 -120.05752 35904 ft 461 kts 353°
2026-04-26 03:22 37.94329 -120.06453 35907 ft 460 kts 353°
2026-04-26 03:22 38.00711 -120.07153 35905 ft 460 kts 353°
2026-04-26 03:23 38.07091 -120.07856 35894 ft 460 kts 353°
2026-04-26 03:23 38.13463 -120.08559 35890 ft 460 kts 353°
2026-04-26 03:24 38.19839 -120.09263 35889 ft 459 kts 353°
2026-04-26 03:24 38.26107 -120.10548 35892 ft 455 kts 341°
2026-04-26 03:25 38.32095 -120.12997 35889 ft 454 kts 339°
2026-04-26 03:25 38.38102 -120.15501 35889 ft 454 kts 340°
2026-04-26 03:26 38.44125 -120.17917 35877 ft 453 kts 340°
2026-04-26 03:26 38.50155 -120.20279 35873 ft 453 kts 340°
2026-04-26 03:27 38.56184 -120.22641 35870 ft 453 kts 340°
2026-04-26 03:27 38.62212 -120.25021 35873 ft 454 kts 340°
2026-04-26 03:28 38.68243 -120.27416 35862 ft 453 kts 340°
2026-04-26 03:28 38.74267 -120.29817 35869 ft 453 kts 340°
2026-04-26 03:29 38.80303 -120.32219 35859 ft 453 kts 340°
2026-04-26 03:29 38.86329 -120.34619 35862 ft 454 kts 340°
2026-04-26 03:30 38.92316 -120.37008 35865 ft 453 kts 340°
2026-04-26 03:30 38.98333 -120.39414 35865 ft 452 kts 340°
2026-04-26 03:31 39.04341 -120.41823 35864 ft 452 kts 340°
2026-04-26 03:31 39.10341 -120.44240 35865 ft 452 kts 340°
2026-04-26 03:32 39.16338 -120.46659 35873 ft 452 kts 340°
2026-04-26 03:32 39.22341 -120.49077 35879 ft 451 kts 340°
2026-04-26 03:33 39.28337 -120.51495 35885 ft 451 kts 340°
2026-04-26 03:33 39.34326 -120.53916 35884 ft 451 kts 340°
2026-04-26 03:34 39.40320 -120.56344 35878 ft 451 kts 339°
2026-04-26 03:34 39.46298 -120.58772 35871 ft 450 kts 339°
2026-04-26 03:35 39.52273 -120.61210 35859 ft 450 kts 339°
2026-04-26 03:35 39.58244 -120.63647 35851 ft 450 kts 339°
2026-04-26 03:36 39.64173 -120.66063 35835 ft 450 kts 339°
2026-04-26 03:36 39.70148 -120.68503 35831 ft 450 kts 339°
2026-04-26 03:37 39.76122 -120.70950 35835 ft 450 kts 339°
2026-04-26 03:37 39.82098 -120.73402 35834 ft 450 kts 339°
2026-04-26 03:38 39.88072 -120.75862 35831 ft 450 kts 339°
2026-04-26 03:38 39.94040 -120.78326 35834 ft 449 kts 339°
2026-04-26 03:39 39.99031 -120.80385 35836 ft 449 kts 339°
2026-04-26 03:39 40.04939 -120.82825 35826 ft 448 kts 338°
2026-04-26 03:40 40.10873 -120.85278 35825 ft 447 kts 339°
2026-04-26 03:40 40.16812 -120.87738 35825 ft 447 kts 338°
2026-04-26 03:41 40.22735 -120.90197 35813 ft 445 kts 338°
2026-04-26 03:41 40.28635 -120.92658 35810 ft 445 kts 338°
2026-04-26 03:42 40.34530 -120.95122 35809 ft 444 kts 338°
2026-04-26 03:42 40.40424 -120.97583 35817 ft 444 kts 338°
2026-04-26 03:43 40.46314 -121.00045 35815 ft 443 kts 338°
2026-04-26 03:43 40.52185 -121.02504 35817 ft 443 kts 338°
2026-04-26 03:44 40.58023 -121.04953 35825 ft 443 kts 338°
2026-04-26 03:44 40.63891 -121.07421 35838 ft 443 kts 338°
2026-04-26 03:45 40.69755 -121.09901 35831 ft 442 kts 338°
2026-04-26 03:45 40.75620 -121.12381 35835 ft 443 kts 338°
2026-04-26 03:46 40.81491 -121.14862 35839 ft 443 kts 338°
2026-04-26 03:47 40.90283 -121.18588 35833 ft 443 kts 338°
2026-04-26 03:47 40.96146 -121.21075 35834 ft 442 kts 338°
2026-04-26 03:48 41.02005 -121.23568 35828 ft 442 kts 338°
2026-04-26 03:48 41.07852 -121.26068 35827 ft 441 kts 338°
2026-04-26 03:49 41.13706 -121.28576 35828 ft 441 kts 338°
2026-04-26 03:49 41.19550 -121.31078 35818 ft 441 kts 338°
2026-04-26 03:50 41.25388 -121.33577 35809 ft 441 kts 338°
2026-04-26 03:50 41.31217 -121.36080 35804 ft 440 kts 338°
2026-04-26 03:51 41.37050 -121.38589 35796 ft 440 kts 338°
2026-04-26 03:51 41.42874 -121.41099 35798 ft 440 kts 338°
2026-04-26 03:52 41.48691 -121.43621 35785 ft 439 kts 337°
2026-04-26 03:52 41.54500 -121.46141 35780 ft 439 kts 338°
2026-04-26 03:53 41.60311 -121.48661 35780 ft 439 kts 338°
2026-04-26 03:53 41.66081 -121.51164 35774 ft 439 kts 338°
2026-04-26 03:54 41.71889 -121.53689 35773 ft 438 kts 338°
2026-04-26 03:54 41.77690 -121.56218 35771 ft 438 kts 338°
2026-04-26 03:55 41.83491 -121.58748 35778 ft 438 kts 338°
2026-04-26 03:55 41.89292 -121.61241 35777 ft 437 kts 338°